[ hide orbit diagram ]
For accurate long-term ephemerides, please instead use our Horizons system.This orbit viewer was implemented using two-body methods, and hence should not be used for determining accurate long-term trajectories (over several years or decades) or planetary encounter circumstances.
Orbital Elements at Epoch 2459000.5 (2020-May-31.0) TDB
Reference: JPL 21 (heliocentric ecliptic J2000)
Element | Value | Uncertainty (1-sigma) | Units |
e | .1053679896697693 | 3.0166e-08 | |
a | 2.436733010518685 | 1.0428e-08 | au |
q | 2.179979351838367 | 7.0423e-08 | au |
i | 6.27781870328717 | 5.6901e-06 | deg |
node | 347.8793407020668 | 2.7075e-05 | deg |
peri | 267.8440514460627 | 4.0134e-05 | deg |
M | 65.8475970940047 | 2.8848e-05 | deg |
tp | 2458746.374774184772 (2019-Sep-19.87477419) | 0.00011168 | TDB |
period | 1389.34578224437 3.80 | 8.9183e-06 2.442e-08 | d yr |
n | .2591147607749964 | 1.6633e-09 | deg/d |
Q | 2.693486669199004 | 1.1527e-08 | au |
|
| | Orbit Determination Parameters
Additional Information
|
[ show covariance matrix ]
Physical Parameter Table
Parameter |
Symbol |
Value |
Units |
Sigma |
Reference |
Notes |
absolute magnitude |
H |
15.1 |
|
n/a |
MPO337522 |
|
diameter |
diameter |
3.042 |
km |
0.485 |
urn:nasa:pds:neowise_diameters_albedos::2.0[mainbelt] (http://adsabs.harvard.edu/abs/2011ApJ...741...68M) |
|
rotation period |
rot_per |
57.293 |
h |
n/a |
LCDB (Rev. 2020-October); Warner et al., 2009 |
Result based on less than full coverage, so that the period may be wrong by 30 percent or so. Published Reference List: [Pal, A.; Szakats, R.; Kiss, C.; Bodi, A.; et al. (2019) Ap. J. Supl. Ser. 247, id.26.] |
geometric albedo |
albedo |
0.276 |
|
0.163 |
urn:nasa:pds:neowise_diameters_albedos::2.0[mainbelt] (http://adsabs.harvard.edu/abs/2011ApJ...741...68M) |
|
|
31897 Brooksdasilva | Discovered 2000 Mar. 30 by the Lincoln Laboratory Near-Earth Asteroid Research Team at Socorro. |
Candace Rose Brooks-Da Silva (b. 1999) was awarded second place in the 2015 Intel International Science and Engineering Fair for her engineering mechanics project. She attends the Academie Ste. Cecile International School, Windsor, Ontario, Canada. |
NOTE: some special characters may not display properly (any characters within {} are an attempt to place the proper accent above a character) |
Reference: MPC batch dated 2015-11-25 | Last Updated: 2015-11-30 |
|
[ show close-approach data ]
|